[[{"header":{"parameterUnit":"m.s-1","parameterCategory":1,"la1":30.2991,"la2":30.254,"lo1":-89.0895,"lo2":-89.0444,"dy":0.0017,"dx":0.0017,"nx":28,"ny":28,"refTime":"2024-05-20T09:00:00:Z","depth":0,"parameterNumber":2,"parameterNumberName":"U-component_of_WINDS"},"data":[0,0,0,0,0,0,0,0,0,0,0,0,0,0,0,0,0,0,0,0,0,0,0,0,0,0,0,0,0,0,0,0,0,0,0,0,0,0,0,0,0,0,0,0,0,0,0,0,0,0,0,0,0,0,0,0,0,0,-3.0996,-3.0996,0,-3.0989,-3.0989,-3.0988,-3.0901,-3.0899,-3.0896,-3.0894,-3.0887,-3.0889,-3.0891,0,0,0,0,0,0,0,0,0,0,0,0,0,-3.0934,-3.0935,-3.0996,-3.0996,-3.0996,-3.0989,-3.0989,-3.0988,-3.0901,-3.0898,-3.0896,-3.0893,-3.0886,-3.0888,-3.0891,0,0,0,0,0,0,0,0,0,0,0,0,0,-3.0947,-3.0936,-3.0996,-3.0951,-3.0947,-3.0989,-3.0989,-3.0988,-3.0902,-3.0898,-3.0895,-3.0892,-3.0886,-3.0888,-3.0891,-3.0975,0,0,-3.09,-3.0901,0,0,0,0,0,0,0,0,-3.0947,-3.095,-3.0958,-3.0954,-3.095,-3.0942,-3.0964,-3.0984,-3.0903,-3.0919,-3.0894,-3.089,-3.0908,-3.0909,-3.0915,-3.0974,-3.0974,-3.09,-3.0902,-3.0903,-3.0904,0,0,0,0,0,0,0,-3.0946,-3.0949,-3.0993,-3.0958,-3.0953,-3.0932,-3.093,-3.0967,-3.0932,-3.0917,-3.0911,-3.0911,-3.0905,-3.0912,-3.0914,-3.0974,-3.09,-3.0902,-3.0904,-3.0905,-3.1102,-3.1106,0,0,0,0,0,0,-3.0951,-3.0949,-3.0993,-3.0993,-3.094,-3.0935,-3.0933,-3.0948,-3.0931,-3.0926,-3.0914,-3.0907,-3.0909,-3.0911,-3.0913,-3.101,-3.0903,-3.0905,-3.0907,-3.1099,-3.1103,-3.1107,0,0,0,0,0,0,-3.095,-3.0956,-3.0993,-3.0969,-3.0972,-3.094,-3.0957,-3.095,-3.0956,-3.0929,-3.0922,-3.0928,-3.0906,-3.0909,-3.096,-3.1008,-3.0907,-3.0909,-3.1094,-3.11,-3.1105,-3.1204,0,0,0,0,0,0,-3.0949,-3.0956,-3.0987,-3.0971,-3.0974,-3.104,-3.096,-3.0952,-3.0962,-3.0952,-3.094,-3.0935,-3.0904,-3.0956,-3.0963,-3.101,-3.0911,-3.109,-3.1097,-3.1103,-3.1196,-3.1212,-3.1225,0,0,0,0,0,-3.0947,-3.1015,-3.0989,-3.0995,-3.1012,-3.1043,-3.1045,-3.1008,-3.0966,-3.0997,-3.098,-3.0935,-3.1002,-3.0962,-3.0969,-3.1018,-3.1087,-3.1095,-3.1103,-3.119,-3.1209,-3.1225,0,0,0,0,0,0,-3.1038,-3.1012,-3.0983,-3.1048,-3.1049,-3.1029,-3.1066,-3.103,-3.1043,-3.1034,-3.0987,-3.0985,-3.1043,-3.1036,-3.0992,-3.1098,-3.1037,-3.1047,-3.1101,-3.1119,-3.1133,-3.1133,-3.0914,0,0,0,0,0,-3.1066,-3.1093,-3.1069,-3.1129,-3.1131,-3.1099,-3.1111,-3.1083,-3.1082,-3.1081,-3.1067,-3.1068,-3.1089,-3.1104,-3.1121,-3.1195,-3.1191,-3.1232,-3.1247,-3.1259,-3.1268,-3.1306,-3.1324,-3.1133,-3.1133,-3.1133,0,0,-3.1123,-3.1113,-3.1132,-3.1147,-3.1144,-3.1173,-3.11,-3.1134,-3.1155,-3.1086,-3.1133,-3.1124,-3.1121,-3.1184,-3.1211,-3.1179,-3.132,-3.1269,-3.1279,-3.1281,-3.1316,-3.1334,-3.135,-3.1139,-3.1138,-3.1137,0,0,-3.1242,-3.1238,-3.1287,-3.1286,-3.1282,-3.1261,-3.1273,-3.1259,-3.125,-3.1296,-3.1245,-3.127,-3.1308,-3.1308,-3.1313,-3.1434,-3.1394,-3.1442,-3.1518,-3.1556,-3.1571,-3.1584,-3.1626,-3.1642,-3.145,-3.1451,-3.1451,0,-3.1314,-3.1356,-3.1317,-3.1354,-3.1362,-3.1302,-3.1352,-3.1353,-3.1356,-3.1362,-3.1327,-3.1373,-3.1367,-3.1429,-3.1459,-3.1465,-3.1477,-3.1442,-3.1572,-3.1584,-3.1596,-3.1636,-3.1652,-3.1456,-3.1456,-3.1455,-3.1455,0,-3.1444,-3.1474,-3.1515,-3.1519,-3.1532,-3.1575,-3.1543,-3.156,-3.1532,-3.1514,-3.1563,-3.1554,-3.1569,-3.1582,-3.1554,-3.164,-3.1621,-3.158,-3.1517,-3.1621,-3.1657,-3.1672,-3.1465,-3.1463,-3.1461,-3.146,0,0,-3.1619,-3.1602,-3.1617,-3.1619,-3.1612,-3.1634,-3.1675,-3.169,-3.1706,-3.1711,-3.1744,-3.1778,-3.174,-3.1746,-3.1718,-3.1751,-3.1847,-3.1706,-3.1705,-3.1732,-3.1941,-3.1971,-3.199,-3.1821,-3.1824,-3.1826,-3.1941,0,-3.1733,-3.1802,-3.1768,-3.1841,-3.1869,-3.1813,-3.1849,-3.1849,-3.1834,-3.1855,-3.1839,-3.1863,-3.1812,-3.1815,-3.1846,-3.1829,-3.1889,-3.1821,-3.1851,-3.1853,-3.1852,-3.2009,-3.2041,-3.2149,-3.1955,-3.1958,-3.196,0,-3.1875,-3.1886,-3.1962,-3.195,-3.196,-3.1993,-3.2004,-3.2026,-3.2024,-3.2011,-3.2019,-3.1983,-3.2023,-3.1962,-3.2016,-3.1971,-3.1981,-3.1976,-3.1979,-3.1979,-3.1911,-3.2012,-3.2183,-3.2199,-3.1982,-3.198,-3.1979,0,-3.1994,-3.2028,-3.2077,-3.208,-3.2068,-3.2093,-3.2089,-3.2084,-3.2096,-3.2106,-3.2113,-3.2128,-3.2136,-3.2148,-3.2118,-3.2076,-3.2176,-3.2112,-3.2166,-3.2167,-3.2187,-3.2186,-3.2361,-3.2197,-3.2197,-3.2197,-3.2196,0,-3.2124,-3.2172,-3.213,-3.2161,-3.2214,-3.2175,-3.2228,-3.2218,-3.2215,-3.2243,-3.2196,-3.2223,-3.2182,-3.2205,-3.2182,-3.223,-3.2234,-3.2224,-3.2217,-3.2228,-3.2229,-3.2233,-3.2224,-3.2201,-3.22,-3.2199,-3.2198,0,-3.2264,-3.2238,-3.2289,-3.2274,-3.2271,-3.2311,-3.2297,-3.2325,-3.2308,-3.2344,-3.235,-3.2323,-3.2347,-3.2319,-3.2341,-3.2326,-3.239,-3.2373,-3.2391,-3.2385,-3.2439,-3.2434,-3.2622,-3.2644,-3.2468,-3.2469,-3.2471,0,-3.2348,-3.2384,-3.2373,-3.2389,-3.2388,-3.2413,-3.2425,-3.2389,-3.2403,-3.2405,-3.2432,-3.2453,-3.2468,-3.251,-3.2492,-3.251,-3.2491,-3.2556,-3.2493,-3.2503,-3.2491,-3.2488,-3.2492,-3.2568,-3.257,-3.2572,-3.2573,0,-3.25,-3.2486,-3.2504,-3.2519,-3.2534,-3.2544,-3.255,-3.2566,-3.2528,-3.2547,-3.2571,-3.2583,-3.2606,-3.2628,-3.264,-3.2636,-3.2599,-3.2594,-3.2606,-3.2616,-3.2625,-3.262,-3.2424,-3.2589,-3.2587,-3.2586,-3.2585,-3.2585,-3.2614,-3.2643,-3.264,-3.2663,-3.2664,-3.2671,-3.2696,-3.2683,-3.2703,-3.2719,-3.2697,-3.2728,-3.2727,-3.2739,-3.274,-3.2763,-3.2736,-3.2755,-3.2759,-3.2764,-3.2772,-3.2623,-3.2766,-3.2765,-3.2765,-3.2764,-3.2764,0,-3.2762,-3.2758,-3.2779,-3.2789,-3.2807,-3.2772,-3.2777,-3.2794,-3.2822,-3.2824,-3.284,-3.2869,-3.289,-3.2875,-3.2892,-3.2914,-3.2897,-3.292,-3.2917,-3.2916,-3.2796,-3.2783,-3.2933,-3.2933,-3.2933,-3.2933,-3.2933,-3.2933,-3.2841,-3.2889,-3.2874,-3.2923,-3.2918,-3.2948,-3.2954,-3.2961,-3.2962,-3.2996,-3.3014,-3.3004,-3.2999,-3.3016,-3.3033,-3.3028,-3.3036,-3.3065,-3.3054,-3.2941,-3.2925,-3.2909,-3.2896,-3.3067,-3.3067,-3.3171,-3.3172,-3.3173]},{"header":{"parameterUnit":"m.s-1","parameterCategory":1,"la1":30.2991,"la2":30.254,"lo1":-89.0895,"lo2":-89.0444,"dy":0.0017,"dx":0.0017,"nx":28,"ny":28,"refTime":"2024-05-20T09:00:00:Z","depth":0,"parameterNumber":3,"parameterNumberName":"V-component_of_WINDS"},"data":[0,0,0,0,0,0,0,0,0,0,0,0,0,0,0,0,0,0,0,0,0,0,0,0,0,0,0,0,0,0,0,0,0,0,0,0,0,0,0,0,0,0,0,0,0,0,0,0,0,0,0,0,0,0,0,0,0,0,0.5328,0.5327,0,0.5283,0.5283,0.5282,0.524,0.524,0.5239,0.5239,0.5193,0.5192,0.5192,0,0,0,0,0,0,0,0,0,0,0,0,0,0.5379,0.5378,0.5328,0.5327,0.5327,0.5283,0.5283,0.5282,0.5241,0.524,0.5239,0.5239,0.5193,0.5192,0.5192,0,0,0,0,0,0,0,0,0,0,0,0,0,0.5348,0.5378,0.5328,0.5301,0.5298,0.5283,0.5283,0.5282,0.5241,0.524,0.5239,0.5238,0.5194,0.5193,0.5191,0.52,0,0,0.5188,0.5188,0,0,0,0,0,0,0,0,0.535,0.5346,0.5305,0.5303,0.5299,0.5267,0.5284,0.5254,0.5241,0.5262,0.5239,0.5238,0.5218,0.5215,0.5208,0.5198,0.5196,0.5188,0.5187,0.5187,0.5186,0,0,0,0,0,0,0,0.5352,0.5348,0.531,0.5305,0.5301,0.5291,0.5286,0.5278,0.5245,0.526,0.5257,0.5253,0.5216,0.5209,0.5207,0.5195,0.5188,0.5187,0.5186,0.5186,0.5191,0.5192,0,0,0,0,0,0,0.5358,0.535,0.5312,0.5309,0.5323,0.5291,0.5285,0.5278,0.5245,0.5239,0.5253,0.5251,0.5212,0.5208,0.5205,0.5214,0.5187,0.5186,0.5185,0.5191,0.5192,0.5192,0,0,0,0,0,0,0.5359,0.5355,0.5313,0.5328,0.5322,0.5291,0.5283,0.5277,0.527,0.524,0.5234,0.5252,0.5211,0.5207,0.5202,0.5212,0.5185,0.5184,0.519,0.5191,0.5192,0.5232,0,0,0,0,0,0,0.5361,0.5356,0.5358,0.5329,0.5322,0.5311,0.5284,0.5277,0.5269,0.5265,0.5237,0.5232,0.521,0.5204,0.5201,0.521,0.5183,0.5189,0.519,0.5192,0.5229,0.5234,0.5238,0,0,0,0,0,0.5363,0.5371,0.5359,0.5354,0.5324,0.5311,0.5307,0.5282,0.527,0.5272,0.5253,0.5233,0.5211,0.5204,0.52,0.5209,0.5188,0.519,0.5191,0.5227,0.5233,0.5238,0,0,0,0,0,0,0.5402,0.5366,0.5352,0.5351,0.5335,0.5304,0.5307,0.5289,0.5276,0.5273,0.5242,0.5236,0.5236,0.5221,0.5214,0.5216,0.5197,0.5198,0.5225,0.5231,0.5235,0.5238,0.5182,0,0,0,0,0,0.541,0.5402,0.5372,0.5374,0.5366,0.5338,0.5332,0.5314,0.5296,0.5288,0.5268,0.5252,0.5241,0.5235,0.5224,0.5227,0.5221,0.5231,0.5236,0.524,0.5241,0.5243,0.5248,0.5198,0.5198,0.5198,0,0,0.5427,0.5407,0.5404,0.5381,0.5366,0.536,0.5332,0.5326,0.5321,0.5287,0.5282,0.5267,0.5246,0.5246,0.5245,0.5235,0.5254,0.5242,0.5245,0.5245,0.5246,0.525,0.5255,0.52,0.5199,0.5199,0,0,0.5455,0.5439,0.5439,0.5425,0.5404,0.5385,0.5385,0.5358,0.5347,0.5341,0.5316,0.531,0.5293,0.5279,0.527,0.5296,0.5277,0.5293,0.5316,0.5319,0.5323,0.5326,0.5336,0.534,0.5295,0.5295,0.5295,0,0.548,0.5468,0.5442,0.5437,0.5429,0.5398,0.5399,0.5387,0.5362,0.5357,0.5346,0.5325,0.5308,0.5305,0.5312,0.5305,0.5305,0.5296,0.5324,0.5327,0.533,0.5339,0.5343,0.5297,0.5296,0.5296,0.5296,0,0.55,0.5492,0.5495,0.5473,0.5465,0.5463,0.5437,0.5431,0.5415,0.5398,0.5394,0.5373,0.5358,0.5356,0.5339,0.5351,0.5346,0.533,0.531,0.5337,0.5346,0.5349,0.53,0.5299,0.5298,0.5298,0,0,0.555,0.5514,0.5516,0.5506,0.5481,0.5475,0.5473,0.5458,0.5455,0.5439,0.5437,0.5424,0.5409,0.5399,0.5381,0.5383,0.5406,0.5367,0.5366,0.5376,0.542,0.5433,0.5437,0.5394,0.5395,0.5395,0.5422,0,0.5574,0.5568,0.5545,0.5545,0.5539,0.5511,0.5509,0.5494,0.5479,0.5471,0.5454,0.5446,0.5427,0.5421,0.5422,0.5404,0.5415,0.5401,0.5392,0.5392,0.5399,0.5441,0.5454,0.548,0.5425,0.5425,0.5426,0,0.5602,0.5589,0.5589,0.5566,0.5562,0.5561,0.5547,0.554,0.5522,0.5511,0.5501,0.5481,0.5478,0.5459,0.5455,0.5446,0.5441,0.5432,0.5433,0.5431,0.5411,0.5442,0.5488,0.5492,0.543,0.543,0.543,0,0.564,0.5623,0.5621,0.5614,0.5586,0.5586,0.5574,0.5556,0.5549,0.5537,0.5533,0.552,0.5513,0.5504,0.5482,0.547,0.5481,0.546,0.5472,0.5473,0.5475,0.5476,0.5523,0.5472,0.5472,0.5471,0.5471,0,0.567,0.5671,0.5638,0.5637,0.5639,0.5612,0.5615,0.56,0.5585,0.5581,0.5556,0.5554,0.5524,0.5518,0.5501,0.5501,0.5497,0.5489,0.5484,0.5491,0.5493,0.5488,0.5486,0.5472,0.5472,0.5472,0.5472,0,0.5712,0.569,0.5687,0.5661,0.5655,0.5657,0.5635,0.5634,0.5617,0.5613,0.5611,0.5585,0.5577,0.5554,0.554,0.5528,0.5534,0.5525,0.554,0.5537,0.5551,0.555,0.5597,0.5602,0.5547,0.5548,0.5548,0,0.5733,0.5734,0.5709,0.5705,0.5695,0.5688,0.5682,0.5656,0.5651,0.5632,0.5633,0.5623,0.5614,0.5603,0.5583,0.5573,0.5563,0.5581,0.5562,0.5569,0.5565,0.5565,0.5566,0.5585,0.5586,0.5586,0.5587,0,0.5773,0.5763,0.5754,0.5742,0.5735,0.5725,0.5713,0.5711,0.5683,0.5678,0.5669,0.5662,0.5649,0.564,0.5626,0.5615,0.5597,0.5593,0.5595,0.5603,0.5612,0.5608,0.5552,0.5592,0.5591,0.5591,0.5591,0.559,0.5806,0.5806,0.5789,0.5781,0.5769,0.5759,0.5757,0.5741,0.5733,0.5721,0.5706,0.57,0.5684,0.5664,0.5655,0.565,0.564,0.5643,0.5644,0.5645,0.5649,0.5612,0.5647,0.5647,0.5647,0.5647,0.5646,0,0.5846,0.5834,0.5826,0.5811,0.5805,0.5788,0.5775,0.5771,0.5766,0.5752,0.5744,0.5736,0.5727,0.5707,0.5697,0.5697,0.5689,0.5696,0.5696,0.5694,0.5658,0.5657,0.5703,0.5703,0.5703,0.5703,0.5703,0.5703,0.5865,0.5865,0.5853,0.5847,0.5835,0.5829,0.5823,0.5813,0.5803,0.5795,0.5788,0.5775,0.5759,0.5748,0.574,0.5734,0.5732,0.5742,0.5734,0.5701,0.5696,0.5691,0.569,0.5742,0.5742,0.577,0.577,0.5771]}]]